Location: ??
(34.8145°N, 135.7852°E)
Time: 16:42:00
(UTC+00:00)

Daily predictions for brighter satellites

Satellite Brightness Start Highest point End
(mag) Time Altitude Azimuth Time Altitude Azimuth Time Altitude Azimuth
Cosmos 2369 Rocket 3.1 12:14:13 32° ENE 12:14:13 32° ENE 12:18:00 10° NE
Iridium 4 Rocket 4.0 12:10:07 32° SSW 12:12:58 72° W 12:18:53 10° N
COSMOS 2406 4.3 12:09:12 10° NW 12:14:23 37° WSW 12:16:55 25° SSW
Cosmos 1461 3.4 12:15:24 26° SW 12:17:59 69° WNW 12:22:38 10° NNE
Meteor 2-12 Rocket 4.3 12:14:47 10° N 12:20:52 85° E 12:22:12 57° SSE
Delta 2 Rocket 3.6 12:16:02 10° W 12:21:03 79° SW 12:21:03 79° SW
Cosmos 44 3.7 12:16:10 10° NNW 12:21:26 53° ENE 12:21:42 52° ENE
Cosmos 1340 Rocket 4.1 12:18:01 10° N 12:20:41 33° NE 12:20:41 33° NE
Cosmos 972 Rocket 4.4 12:16:33 10° NNW 12:23:23 83° ENE 12:24:44 58° SSE
Cosmos 1898 Rocket 4.0 12:23:03 24° SW 12:26:06 57° WNW 12:31:22 10° N
Cosmos 2228 Rocket 4.4 12:33:26 29° WSW 12:34:42 35° W 12:38:50 10° NNW
Cosmos 923 Rocket 4.2 12:32:56 10° NNW 12:38:09 63° WSW 12:38:29 61° WSW
Resurs 01 Rocket 3.6 12:37:08 18° WSW 12:38:25 20° W 12:41:44 10° NW
Terra 2.5 12:41:04 45° NE 12:41:04 45° NE 12:44:47 10° N
Cosmos 1869 Rocket 4.2 12:36:58 10° NNW 12:40:42 53° WNW 12:40:42 53° WNW
Cosmos 2341 Rocket 4.2 12:35:32 10° N 12:41:47 54° E 12:41:53 54° E
SL-24 R/B - RUBIN 2 4.0 12:37:15 10° NNW 12:41:49 66° N 12:41:49 66° N
Cosmos 1818 3.9 12:39:19 10° NNW 12:44:29 53° NE 12:44:29 53° NE
Cosmos 1536 4.1 12:42:59 10° NNW 12:45:51 40° NW 12:45:51 40° NW
Cosmos 1707 Rocket 4.5 12:52:47 47° NW 12:52:47 47° NW 12:56:14 10° N
SL-8 Rocket 4.2 12:52:45 10° N 12:58:35 56° ENE 12:58:35 56° ENE
Meteor 1-19 Rocket 4.4 13:04:18 60° NNE 13:04:18 60° NNE 13:08:42 10° N
ERS-1 Rocket 3.7 13:09:19 48° WNW 13:09:19 48° WNW 13:13:31 10° NNW
SPOT 5 3.8 13:14:39 46° WNW 13:14:39 46° WNW 13:19:09 10° NNW
Gbstr 26 Del rocket 4.2 13:13:39 10° NW 13:20:52 65° NE 13:20:52 65° NE
Cosmos 1238 Rocket 4.4 13:23:17 10° NNW 13:27:07 43° NNW 13:27:07 43° NNW
Cosmos 1943 Rocket 4.3 13:29:05 11° WSW 13:32:59 22° WNW 13:37:15 10° N
Cosmos 2082 Rocket 4.4 13:31:17 10° WNW 13:34:04 14° W 13:34:17 14° W
Cosmos 1656 Rocket 4.5 13:41:58 47° NNW 13:41:58 47° NNW 13:46:11 10° NNE
ATLAS 2AS CENTAUR R/B 3.6 13:35:36 10° NW 13:41:23 36° W 13:41:23 36° W
Lacrosse 5 4.0 13:46:30 19° NE 13:46:30 19° NE 13:47:59 10° NE
Milstar 3 3.9 13:40:41 10° W 13:50:47 46° SW 13:50:47 46° SW
Cosmos 2369 Rocket 3.9 13:55:55 25° WNW 13:56:55 26° WNW 14:01:37 10° N
ATLAS CENTAUR R/B 4.5 14:11:05 11° NNW 14:11:05 11° NNW 14:11:20 10° NNW
COSMOS 2455 4.3 14:44:36 10° N 14:49:40 29° NE 14:49:40 29° NE
Cosmos 2297 Rocket 4.1 14:50:47 10° N 14:54:59 21° ENE 14:55:02 21° ENE
Lacrosse 5 4.3 15:25:39 15° NW 15:26:32 16° NNW 15:29:39 10° N
SeaSat 1 4.1 15:27:20 10° NNE 15:29:55 32° NNE 15:29:55 32° NNE
Resurs 1-4 Rocket 4.2 15:28:42 10° NE 15:31:08 19° ENE 15:31:08 19° ENE
CZ-2D R/B 4.0 15:33:46 10° NE 15:36:34 21° ENE 15:36:34 21° ENE
Cosmos 2219 4.2 15:39:54 10° N 15:44:28 43° NE 15:44:28 43° NE
Cosmos 2100 Rocket 4.5 15:43:53 10° N 15:49:23 57° NE 15:49:23 57° NE
Cosmos 1697 Rocket 3.4 16:05:09 50° NNE 16:05:09 50° NNE 16:09:13 10° NNE
Lacrosse 4 Rocket 3.4 16:17:03 28° N 16:17:03 28° N 16:19:13 10° NNE
Cosmos 1980 Rocket 2.8 16:18:51 51° ENE 16:18:51 51° ENE 16:23:21 10° NNE
Meteor 2-11 Rocket 4.5 16:24:05 10° N 16:29:38 74° NNW 16:29:38 74° NNW
SL-16 R/B 2.7 16:34:30 60° ESE 16:35:19 66° ENE 16:41:31 10° N
COSMOS 2455 4.4 16:30:12 10° NW 16:32:46 24° WNW 16:32:46 24° WNW
Cosmos 407 Rocket 4.0 16:30:58 10° N 16:35:56 58° NE 16:35:56 58° NE
Cosmos 2227 Rocket 3.0 16:31:39 10° NNW 16:35:27 43° NW 16:35:27 43° NW
Meteor 2-5 Rocket 4.4 16:38:19 45° E 16:38:33 45° E 16:43:52 10° NNE
Cosmos 2297 Rocket 3.5 16:33:49 10° NNW 16:36:48 30° NW 16:36:48 30° NW
Cosmos 1459 Rocket 4.4 16:33:49 10° NNW 16:38:46 49° NW 16:38:46 49° NW
Timation 1 Rocket 4.3 16:37:14 10° NNW 16:42:47 78° NNW 16:42:47 78° NNW
Cosmos 1725 Rocket 3.8 16:37:18 10° N 16:43:33 87° E 16:43:37 86° ESE
USA 281 3.1 16:44:09 63° SE 16:45:19 82° ENE 16:51:56 10° NNW
Cosmos 1624 Rocket 4.3 16:47:30 62° NNW 16:47:30 62° NNW 16:52:02 10° NNE
Cosmos 2278 3.7 16:47:15 78° N 16:47:15 78° N 16:52:34 10° NNE
Cosmos 2369 4.2 16:47:25 50° NW 16:47:25 50° NW 16:52:29 10° N
Atlas Centaur 2 3.4 16:48:22 42° SSE 16:48:22 42° SSE 16:54:38 10° E
Cosmos 2233 Rocket 4.3 16:42:06 10° N 16:48:10 59° E 16:49:27 49° SE
ADEOS II 2.4 16:46:43 10° NNE 16:51:52 56° E 16:51:52 56° E
Cosmos 2016 Rocket 4.0 16:48:58 10° NNW 16:54:40 62° WNW 16:54:40 62° WNW
Cosmos 2082 3.6 16:49:44 10° NNW 16:55:28 83° ENE 16:55:35 82° E
USA 215 3.3 16:49:56 10° SE 16:56:27 79° NE 17:03:00 10° NW
APEX 4.3 16:51:49 10° NNW 16:56:03 64° NW 16:56:03 64° NW
AQUA 4.2 16:52:47 10° N 16:56:43 61° N 16:56:43 61° N
SL-16 R/B 3.4 16:57:03 31° ESE 16:58:03 33° ESE 17:03:03 10° NE
CENTAUR R/B 3.6 16:57:36 25° SE 16:58:41 27° ESE 17:03:49 10° NE
Cosmos 1626 4.4 17:02:17 19° NNW 17:02:17 19° NNW 17:03:34 10° N
Cosmos 1452 Rocket 4.0 17:06:03 48° ESE 17:06:33 50° ESE 17:11:39 10° NNE
OAO 1 Rocket 4.5 17:09:13 70° ESE 17:09:13 70° ESE 17:14:02 10° E
Cosmos 2056 Rocket 4.1 17:09:49 43° NW 17:09:49 43° NW 17:14:10 10° N
SEDSat Delta rocket 4.5 17:12:10 36° SE 17:12:10 36° SE 17:16:04 10° E
Resurs 1-4 Rocket 2.9 17:07:45 10° N 17:12:12 37° WNW 17:12:12 37° WNW
Cosmos 1536 Rocket 4.4 17:17:49 40° NW 17:17:49 40° NW 17:21:03 10° N
ISS -0.8 17:20:57 11° ESE 17:20:57 11° ESE 17:21:12 10° ESE
CZ-2D R/B 3.0 17:13:17 10° N 17:17:53 35° WNW 17:17:53 35° WNW
Cosmos 2285 Rocket 4.3 17:18:41 48° W 17:19:30 51° WNW 17:25:45 10° N
Cosmos 1140 Rocket 3.8 17:15:54 10° NNW 17:20:13 51° WNW 17:20:13 51° WNW
Cosmos 2322 Rocket 3.1 17:21:00 32° SSE 17:22:50 42° ESE 17:28:09 10° NE
NPP 4.4 17:21:09 10° N 17:26:04 37° WNW 17:26:10 37° WNW
Cosmos 2263 Rocket 3.1 17:20:48 10° N 17:26:15 47° ENE 17:31:42 10° SE
Cosmos 220 Rocket 4.3 17:30:02 58° NW 17:30:02 58° NW 17:34:04 10° N
Cosmos 1300 3.8 17:36:56 10° NNW 17:39:23 34° NW 17:39:23 34° NW
GP-B 3.6 17:38:37 10° NNW 17:42:26 42° WNW 17:42:26 42° WNW
Cosmos 2360 Rocket 3.5 17:39:50 19° SSE 17:43:12 34° ESE 17:48:14 10° NE
IRS-1D 3.8 17:38:04 10° N 17:43:18 57° WNW 17:44:21 48° WSW
Meteor 1-24 Rocket 3.9 17:47:00 44° WSW 17:47:56 49° W 17:53:11 10° N
Cosmos 405 3.4 17:47:10 10° NNW 17:49:54 49° NW 17:49:54 49° NW
CZ-4C R/B 3.4 17:49:26 40° SSE 17:50:56 83° E 17:55:02 10° N
Cosmos 1455 3.8 17:50:42 10° NNE 17:54:14 34° E 17:57:44 10° SE
CZ-4B R/B 3.7 17:49:39 10° NNE 17:54:44 68° ESE 17:57:31 28° S
Cosmos 1340 4.3 17:55:38 22° NW 17:55:38 22° NW 17:57:53 10° NNW
OAO 2 Rocket 3.3 17:56:16 31° W 17:58:50 86° S 18:04:11 10° E
Cosmos 1891 Rocket 4.3 17:53:04 10° N 17:59:07 89° E 18:04:14 15° S
MSX 3.8 17:53:54 10° NNE 17:59:43 87° ESE 18:02:59 28° SSW
Cosmos 1980 Rocket 3.9 18:00:37 16° WNW 18:02:10 18° NW 18:05:54 10° NNW
NOSS 3-2 (C) 3.2 18:00:04 34° SSW 18:02:31 77° ESE 18:08:34 10° NE
Cosmos 2237 4.4 18:00:07 26° S 18:03:20 67° ESE 18:09:00 10° NNE
ARIANE 5 R/B 2.5 17:58:21 10° NNE 18:03:28 78° ESE 18:06:19 26° S
IDEFIX/ARIANE 42P 2.8 18:01:20 10° N 18:06:29 55° WNW 18:08:32 34° SW
OAO 3 Copernicus 4.2 18:05:44 35° WSW 18:07:55 85° S 18:13:01 10° E
IRS-1C 4.1 18:03:28 10° N 18:08:47 73° WNW 18:11:32 29° SSW
Meteor 1-28 Rocket 3.9 18:10:05 34° W 18:10:05 34° W 18:13:01 10° NNW
SL-08 R/B 3.8 18:06:26 10° SSE 18:11:01 59° ENE 18:15:35 10° N
Meteor 1-21 Rocket 4.5 18:06:51 16° S 18:11:22 67° E 18:16:52 10° NNE
Cosmos 1346 Rocket 3.0 18:14:51 41° WSW 18:15:43 51° W 18:19:33 10° N
ADEOS Rocket 3.7 18:11:48 18° SSW 18:17:17 50° W 18:24:48 10° NNW
CZ-2C R/B 3.5 18:13:07 10° NNE 18:18:05 45° E 18:23:02 10° S
Cosmos 1241 Rocket 4.4 18:11:59 10° NNW 18:18:28 87° WSW 18:24:45 10° SSE
SL-16 R/B 4.1 18:19:35 16° W 18:19:35 16° W 18:23:02 10° NW
Cosmos 2227 4.1 18:14:21 10° NNW 18:19:57 66° WSW 18:25:29 10° S
Cosmos 1892 Rocket 3.8 18:20:38 32° SW 18:22:10 47° W 18:26:21 10° N
Cosmos 1703 3.3 18:19:58 20° S 18:22:30 73° E 18:26:22 10° N
NOSS 3-2 (A) 4.0 18:20:15 24° WSW 18:23:03 41° NW 18:28:51 10° NNE
Cosmos 1513 Rocket 4.5 18:17:42 10° NNW 18:23:42 58° W 18:29:03 13° SSW
Tsikada Rocket 4.2 18:17:29 10° S 18:23:53 79° E 18:30:15 10° N
Cosmos 389 Rocket 2.4 18:23:45 10° N 18:27:13 84° E 18:30:28 11° S
ADEOS II 3.8 18:27:58 10° NNW 18:31:03 16° WNW 18:32:49 14° W
Cosmos 1464 Rocket 4.1 18:26:06 10° NNW 18:32:06 54° W 18:38:10 10° SSW
Cosmos 2228 4.0 18:29:02 10° NNW 18:32:40 27° W 18:33:47 24° WSW
Cosmos 1328 4.3 18:29:08 10° S 18:33:03 60° E 18:36:59 10° NNE
SL-8 R/B 3.9 18:30:18 23° SSW 18:33:07 61° SE 18:37:49 10° ENE
Cosmos 1302 Rocket 4.3 18:28:38 12° S 18:33:27 68° ESE 18:38:43 10° NNE
Meteor 2-10 Rocket 4.2 18:30:30 10° NNW 18:35:37 38° W 18:39:22 16° SSW
Atlas Centaur 2 2.9 18:30:55 18° WSW 18:36:57 61° S 18:43:36 10° E
PAYLOAD A 3.9 18:33:08 10° NNE 18:37:50 79° ESE 18:42:32 10° S
USA 238 DEB 4.1 18:34:43 20° WSW 18:39:02 46° NW 18:45:32 10° NNE
USA 238 4.1 18:34:48 20° WSW 18:39:08 47° NW 18:45:38 10° NNE
USA 215 4.2 18:34:51 10° S 18:39:47 23° WSW 18:44:44 10° WNW
Cosmos 1331 Rocket 4.3 18:36:54 21° SW 18:40:06 48° WNW 18:45:07 10° N
SL-16 R/B 3.3 18:38:55 18° WSW 18:42:05 30° WNW 18:47:00 10° N
Cosmos 1726 Rocket 4.3 18:40:23 10° NNW 18:44:18 32° W 18:47:11 16° SW
Cosmos 2034 Rocket 4.0 18:38:31 10° NNW 18:44:45 63° W 18:50:53 10° S
CZ-2C R/B 2.9 18:42:42 10° NNE 18:46:46 85° ESE 18:50:48 10° S
Cosmos 2333 Rocket 2.9 18:42:22 10° S 18:47:58 55° ESE 18:53:36 10° NNE
CENTAUR R/B 3.1 18:44:47 17° WSW 18:48:54 41° NW 18:55:13 10° NNE
Cosmos 2058 Rocket 3.4 18:46:26 10° NNW 18:50:46 49° W 18:55:06 10° SSW
Okean 1-7 Rocket 4.2 18:47:43 16° SW 18:51:00 41° W 18:55:20 10° N
OAO 1 Rocket 4.5 18:49:06 10° W 18:54:27 89° N 18:59:49 10° E
ISS -2.3 18:54:21 18° WSW 18:54:40 18° SW 18:57:02 10° S
Cosmos 1184 Rocket 2.9 18:53:04 14° SSW 18:55:36 53° W 18:58:45 10° N
SEDSat Delta rocket 3.6 18:52:15 14° WSW 18:57:07 60° S 19:02:00 10° E
Aureole 1 Rocket 3.2 18:54:44 10° NNW 18:58:32 51° WSW 19:03:28 10° S
Cosmos 1441 Rocket 3.2 18:54:53 10° SSW 18:58:47 73° W 19:02:46 10° N
Cosmos 2333 4.3 19:00:33 10° SSW 19:06:19 82° WNW 19:12:08 10° NNE
Cosmos 2322 Rocket 3.5 19:02:50 11° WSW 19:06:59 24° WNW 19:11:33 10° N
Cosmos 2263 Rocket 3.5 19:05:46 10° NW 19:09:44 20° W 19:13:43 10° SW
H-2A R/B 2.8 19:08:06 12° WSW 19:10:43 38° SSE 19:21:28 10° ESE
Cosmos 1602 Rocket 3.6 19:06:29 10° SSW 19:10:46 62° W 19:15:06 10° N
Cosmos 1844 Rocket 3.0 19:05:17 10° NNW 19:10:56 74° ENE 19:16:35 10° SSE
Cosmos 1758 Rocket 3.8 19:08:17 10° S 19:12:42 75° E 19:17:11 10° N
USA 276 4.4 19:10:10 10° NNW 19:12:57 27° NNE 19:15:44 10° E
Cosmos 1626 Rocket 4.3 19:13:27 10° SW 19:17:28 35° W 19:21:32 10° NNW
ALOS 2.3 19:13:30 10° N 19:18:09 76° WNW 19:22:48 10° SSW
Cosmos 968 Rocket 4.4 19:16:34 10° N 19:21:34 53° ENE 19:26:32 10° SSE
Meteor 1-11 4.3 19:17:58 10° SSW 19:23:44 69° W 19:29:29 10° N
Cosmos 2219 Rocket 2.2 19:19:13 10° SSW 19:24:52 82° WNW 19:30:35 10° NNE
Cosmos 2360 Rocket 3.3 19:22:18 10° WSW 19:27:09 29° WNW 19:32:00 10° N
ATLAS 3B R/B 3.3 19:20:52 10° SSW 19:27:11 56° ESE 19:33:38 10° NE
